TimeMDT,TemperatureF,Dew PointF,Humidity,Sea Level PressureIn,VisibilityMPH,Wind Direction,Wind SpeedMPH,Gust SpeedMPH,PrecipitationIn,Events,Conditions,WindDirDegrees,DateUTC
12:53 AM,46.0,39.0,76,29.92,10.0,Calm,Calm,-,N/A,,Mostly Cloudy,0,2013-04-29 06:53:00
1:53 AM,41.0,37.0,86,29.89,10.0,Calm,Calm,-,N/A,,Clear,0,2013-04-29 07:53:00
2:53 AM,39.0,36.0,89,29.86,10.0,WSW,6.9,-,N/A,,Mostly Cloudy,250,2013-04-29 08:53:00
3:53 AM,41.0,37.9,89,29.86,10.0,WSW,4.6,-,N/A,,Mostly Cloudy,240,2013-04-29 09:53:00
4:53 AM,39.0,37.0,93,29.83,10.0,North,3.5,-,N/A,,Clear,360,2013-04-29 10:53:00
5:53 AM,36.0,34.0,93,29.81,10.0,SSW,3.5,-,N/A,,Clear,200,2013-04-29 11:53:00
6:53 AM,39.0,37.0,93,29.80,10.0,NW,3.5,-,N/A,,Clear,310,2013-04-29 12:53:00
7:53 AM,48.0,39.9,74,29.76,10.0,Calm,Calm,-,N/A,,Clear,0,2013-04-29 13:53:00
8:53 AM,57.0,39.0,51,29.72,10.0,South,12.7,-,N/A,,Clear,180,2013-04-29 14:53:00
9:53 AM,63.0,39.0,41,29.67,10.0,SW,11.5,19.6,N/A,,Clear,230,2013-04-29 15:53:00
10:53 AM,70.0,35.1,28,29.62,10.0,WSW,19.6,26.5,N/A,,Clear,240,2013-04-29 16:53:00
11:53 AM,72.0,26.1,18,29.61,10.0,WSW,15.0,-,N/A,,Clear,250,2013-04-29 17:53:00
12:53 PM,71.1,28.0,20,29.58,10.0,West,13.8,-,N/A,,Clear,270,2013-04-29 18:53:00
1:53 PM,73.9,26.1,17,29.54,10.0,West,13.8,26.5,N/A,,Clear,270,2013-04-29 19:53:00
2:53 PM,77.0,26.1,15,29.50,10.0,WSW,18.4,26.5,N/A,,Clear,240,2013-04-29 20:53:00
3:53 PM,78.1,24.1,14,29.44,10.0,SW,13.8,-,N/A,,Clear,230,2013-04-29 21:53:00
4:53 PM,78.1,27.0,15,29.42,10.0,West,9.2,-,N/A,,Clear,270,2013-04-29 22:53:00
5:53 PM,75.0,28.9,18,29.43,10.0,West,12.7,-,N/A,,Clear,280,2013-04-29 23:53:00
6:53 PM,72.0,30.9,22,29.42,10.0,West,10.4,-,N/A,,Clear,260,2013-04-30 00:53:00
7:53 PM,66.9,32.0,27,29.42,10.0,WSW,8.1,-,N/A,,Clear,250,2013-04-30 01:53:00
8:53 PM,61.0,33.1,35,29.42,10.0,SW,6.9,-,N/A,,Clear,220,2013-04-30 02:53:00
9:53 PM,55.0,34.0,45,29.45,10.0,WSW,6.9,-,N/A,,Clear,240,2013-04-30 03:53:00
10:53 PM,61.0,30.9,32,29.47,10.0,NW,15.0,23.0,N/A,,Clear,320,2013-04-30 04:53:00
11:10 PM,53.6,39.2,58,29.58,10.0,NE,19.6,33.4,N/A,,Clear,40,2013-04-30 05:10:00
11:53 PM,48.9,39.0,69,29.59,10.0,NE,11.5,-,N/A,,Clear,40,2013-04-30 05:53:00